HORIZONS-2

Last updated on Fri Jul 11 2025 00:02:42 GMT+0000 (Coordinated Universal Time)

1 32388U 07063B 25191.54704943 -.00000242 00000+0 00000+0 0 9991 2 32388 1.7174 84.9870 0002426 41.0261 285.8289 1.00270225 64382
UTC large
Height (km)
Speed (km/s)
/
Latitude / Longitude
Inclination (degrees)
Orbital Period (minutes)
Azimuth
Elevation
Range (km)
Doppler Factor

Next 0 passes for location: London (51.5072 / 0.1276)

Sorry there are no passes over London.